EW5742 Weather Reports


Display with metric or nautical units.
time (UTC)temp
F
wind
direction
speed
MPH
gust
MPH
rain 1hr
in
rain 24hr
in
rain mn
in
humidity
%
barometer
mb
20260508170044 70 309 2.0 9.0 0.00 0.37 0.00 52 1016.5
20260508164545 70 135 0.0 6.0 0.00 0.37 0.00 52 1016.5
20260508163033 69 33 3.0 9.0 0.00 0.37 0.00 51 1016.6
20260508161529 68 301 1.0 10.0 0.00 0.37 0.00 57 1016.6
20260508160014 69 42 2.0 6.0 0.00 0.38 0.00 60 1016.7
20260508154505 67 252 1.0 6.0 0.00 0.38 0.00 65 1016.9
20260508153053 66 20 2.0 9.0 0.00 0.38 0.00 68 1016.9
20260508151546 65 294 1.0 6.0 0.00 0.38 0.00 71 1016.8
20260508150043 64 306 2.0 10.0 0.00 0.38 0.00 71 1016.7
20260508144544 64 3 2.0 8.0 0.00 0.38 0.00 71 1016.7
20260508143024 62 65 3.0 7.0 0.00 0.38 0.00 74 1016.6
20260508141517 61 344 3.0 9.0 0.00 0.38 0.00 75 1016.6
20260508140018 60 15 2.0 8.0 0.00 0.39 0.00 79 1016.5
20260508134519 60 27 1.0 6.0 0.00 0.39 0.00 80 1016.4
20260508133026 59 24 1.0 8.0 0.00 0.39 0.00 82 1016.4
20260508131519 59 43 2.0 6.0 0.00 0.39 0.00 81 1016.5
20260508130022 57 297 1.0 7.0 0.00 0.42 0.00 85 1016.3
20260508124531 56 20 0.0 6.0 0.00 0.42 0.00 87 1016.3
20260508123046 56 349 2.0 5.0 0.00 0.42 0.00 87 1016.1
20260508123044 55 8 1.0 5.0 0.00 0.42 0.00 88 1016.1
20260508121602 54 23 1.0 3.0 0.00 0.42 0.00 90 1016.0
20260508121506 54 335 0.0 3.0 0.00 0.42 0.00 90 1016.0
20260508120057 54 283 2.0 5.0 0.00 0.77 0.00 89 1015.8
20260508114534 54 347 1.0 5.0 0.00 0.77 0.00 91 1015.6
20260508113045 53 29 1.0 5.0 0.00 0.77 0.00 92 1015.5
20260508111504 53 33 1.0 4.0 0.00 0.77 0.00 93 1015.2
20260508110006 52 300 0.0 4.0 0.00 0.89 0.00 93 1015.4
20260508104539 51 297 1.0 6.0 0.00 0.89 0.00 93 1014.8
20260508103037 51 319 2.0 7.0 0.00 0.89 0.00 94 1014.6
20260508101513 51 320 1.0 8.0 0.00 0.89 0.00 94 1014.3
20260508100008 51 326 2.0 6.0 0.00 0.89 0.00 94 1014.1
20260508094524 51 13 2.0 6.0 0.00 0.89 0.00 94 1014.0
20260508093021 50 306 0.0 2.0 0.00 0.89 0.00 94 1013.5
20260508091534 50 318 0.0 2.0 0.00 0.89 0.00 94 1013.5
20260508090030 50 314 0.0 2.0 0.00 0.89 0.00 94 1013.2
20260508084512 50 315 0.0 2.0 0.00 0.89 0.00 94 1013.0
20260508083124 50 312 0.0 3.0 0.00 0.89 0.00 94 1012.8
20260508081534 51 338 0.0 3.0 0.00 0.89 0.00 93 1012.5
20260508080038 51 12 1.0 4.0 0.00 0.93 0.00 93 1012.3
20260508073013 51 297 0.0 7.0 0.00 0.93 0.00 93 1012.3
20260508071522 51 323 1.0 4.0 0.00 0.93 0.00 93 1012.6
20260508070032 52 314 0.0 4.0 0.00 1.14 0.00 93 1012.4
20260508064546 52 324 0.0 1.0 0.00 1.14 0.00 93 1012.3
20260508063027 52 268 0.0 1.0 0.00 1.14 0.00 93 1012.1
20260508061525 52 311 0.0 3.0 0.00 1.14 0.00 93 1012.2
20260508060018 53 298 0.0 3.0 0.00 1.14 0.00 93 1012.0
20260508054516 53 318 0.0 3.0 0.00 1.14 0.00 93 1011.9
20260508053051 53 323 1.0 4.0 0.00 1.14 0.00 93 1011.9
20260508051545 54 305 1.0 3.0 0.00 1.14 0.00 93 1012.0
20260508050041 53 327 0.0 2.0 0.00 1.14 0.00 93 1012.4
20260508044539 53 319 0.0 4.0 0.00 1.14 0.00 93 1012.1
20260508043004 54 34 0.0 5.0 0.00 1.14 0.00 93 1011.3
20260508041607 54 37 0.0 2.0 0.01 1.14 0.00 93 1011.4
20260508040012 54 328 0.0 2.0 0.10 1.14 1.14 92 1011.2
20260508034512 54 55 0.0 3.0 0.10 1.14 1.14 92 1011.1
20260508033013 54 335 0.0 1.0 0.10 1.14 1.14 92 1011.3
20260508031512 55 240 0.0 5.0 0.09 1.13 1.13 91 1011.7
20260508030045 55 8 1.0 9.0 0.00 1.05 1.05 91 1010.7
20260508024540 55 42 2.0 5.0 0.00 1.05 1.05 91 1011.0
20260508023049 55 329 3.0 9.0 0.00 1.05 1.05 90 1010.6
20260508020019 56 32 3.0 8.0 0.00 1.05 1.05 90 1010.1
20260508014519 56 332 2.0 8.0 0.00 1.05 1.05 90 1009.6
20260508013029 56 310 2.0 8.0 0.00 1.05 1.05 90 1009.7
20260508011514 56 330 1.0 9.0 0.00 1.05 1.05 90 1009.4
20260508010014 57 323 3.0 8.0 0.00 1.05 1.05 89 1009.0
20260508004625 57 61 2.0 9.0 0.00 1.05 1.05 89 1008.5
20260508003129 58 39 3.0 8.0 0.00 1.05 1.05 89 1008.5
20260508001508 59 303 3.0 10.0 0.00 1.05 1.05 88 1008.4
20260508000025 61 316 5.0 14.0 0.00 1.05 1.05 87 1008.1
20260507234510 66 322 7.0 16.0 0.00 1.05 1.05 84 1007.7
20260507233015 70 141 0.0 1.0 0.00 1.05 1.05 90 1007.0
20260507231553 70 228 0.0 0.0 0.00 1.05 1.05 90 1006.7
20260507230048 70 227 0.0 2.0 0.00 1.05 1.05 89 1006.3
20260507224533 70 283 0.0 2.0 0.00 1.05 1.05 90 1006.5
20260507223029 69 147 0.0 2.0 0.00 1.05 1.05 89 1006.8
20260507221556 69 254 1.0 9.0 0.00 1.05 1.05 88 1007.0
20260507220057 70 262 0.0 7.0 0.00 1.05 1.05 87 1006.9
20260507214604 71 75 0.0 5.0 0.00 1.05 1.05 85 1006.7
20260507213053 71 237 1.0 7.0 0.00 1.05 1.05 84 1006.4
20260507211518 72 220 1.0 9.0 0.00 1.05 1.05 85 1006.1
20260507210032 71 113 2.0 8.0 0.00 1.05 1.05 86 1006.0
20260507204542 70 196 1.0 6.0 0.00 1.05 1.05 87 1006.2
20260507203052 70 117 1.0 5.0 0.00 1.05 1.05 87 1006.5
20260507201601 71 144 0.0 7.0 0.00 1.05 1.05 87 1006.8
20260507200057 72 19 2.0 10.0 0.00 1.05 1.05 86 1007.0
20260507194615 72 124 2.0 11.0 0.00 1.05 1.05 86 1007.0
20260507193045 71 142 1.0 6.0 0.01 1.05 1.05 88 1007.3
20260507191505 70 146 2.0 6.0 0.01 1.05 1.05 88 1007.5
20260507190006 70 226 1.0 5.0 0.02 1.05 1.05 90 1007.9
20260507184624 70 86 0.0 3.0 0.03 1.05 1.05 93 1008.2
20260507183022 69 249 0.0 4.0 0.05 1.04 1.04 93 1008.5
20260507181618 68 183 1.0 3.0 0.12 1.04 1.04 92 1008.6
20260507180051 68 123 0.0 7.0 0.17 1.03 1.03 92 1008.4
20260507174548 68 184 2.0 11.0 0.17 1.02 1.02 91 1009.0
20260507173023 69 131 5.0 11.0 0.14 0.99 0.99 92 1009.8
20260507171519 69 232 1.0 6.0 0.09 0.92 0.92 92 1009.9